FW8431 Weather Reports


Display with metric or nautical units.
time (UTC)temp
F
wind
direction
speed
MPH
gust
MPH
rain 1hr
in
rain 24hr
in
rain mn
in
humidity
%
barometer
mb
20260506061551 62 195 0.0 7.0 0.00 0.00 0.00 59 1015.5
20260506044609 61 255 1.0 10.0 0.00 0.00 0.00 63 1015.4
20260506043057 60 0 0.0 6.0 0.00 0.00 0.00 65 1015.9
20260506041554 58 63 1.0 3.0 0.00 0.00 0.00 68 1015.8
20260506040051 57 0 1.0 5.0 0.00 0.00 0.00 68 1016.1
20260506034557 57 342 1.0 3.0 0.00 0.00 0.00 66 1015.7
20260506033047 58 343 1.0 3.0 0.00 0.00 0.00 64 1015.6
20260506031556 58 343 0.0 3.0 0.00 0.00 0.00 64 1015.6
20260506030052 58 339 1.0 4.0 0.00 0.00 0.00 62 1015.7
20260506024549 58 33 2.0 4.0 0.00 0.00 0.00 63 1016.2
20260506023054 58 21 1.0 3.0 0.00 0.00 0.00 64 1015.9
20260506021557 58 0 0.0 2.0 0.00 0.00 0.00 62 1015.7
20260506020051 59 21 1.0 3.0 0.00 0.00 0.00 60 1015.5
20260506014550 60 21 1.0 3.0 0.00 0.00 0.00 58 1015.5
20260506013051 61 21 1.0 3.0 0.00 0.00 0.00 56 1015.6
20260506011555 62 21 1.0 4.0 0.00 0.00 0.00 57 1015.7
20260506010057 63 238 0.0 6.0 0.00 0.00 0.00 55 1015.7
20260506004554 63 219 1.0 6.0 0.00 0.00 0.00 54 1015.5
20260506003107 64 0 1.0 11.0 0.00 0.00 0.00 53 1015.4
20260506001605 64 209 3.0 9.0 0.00 0.00 0.00 52 1015.2
20260506000109 65 252 1.0 5.0 0.00 0.00 0.00 52 1015.2
20260505234610 66 196 3.0 11.0 0.00 0.00 0.00 51 1015.3
20260505233102 66 237 2.0 11.0 0.00 0.00 0.00 51 1015.2
20260505231554 66 259 3.0 9.0 0.00 0.00 0.00 49 1015.3
20260505230054 67 217 5.0 12.0 0.00 0.00 0.00 49 1015.2
20260505224555 67 225 5.0 11.0 0.00 0.00 0.00 48 1015.3
20260505223106 68 242 6.0 14.0 0.00 0.00 0.00 47 1015.3
20260505221550 69 234 7.0 12.0 0.00 0.00 0.00 46 1015.2
20260505220050 69 250 5.0 15.0 0.00 0.00 0.00 46 1015.2
20260505214559 69 232 6.0 14.0 0.00 0.00 0.00 46 1015.1
20260505213058 70 55 3.0 12.0 0.00 0.00 0.00 45 1015.1
20260505211622 69 252 4.0 16.0 0.00 0.00 0.00 44 1015.2
20260505210056 70 234 5.0 13.0 0.00 0.00 0.00 45 1015.3
20260505204552 69 242 5.0 13.0 0.00 0.00 0.00 44 1015.4
20260505203116 70 248 4.0 17.0 0.00 0.00 0.00 45 1015.7
20260505201555 69 215 3.0 10.0 0.00 0.00 0.00 43 1015.6
20260505200054 70 250 4.0 14.0 0.00 0.00 0.00 45 1015.5
20260505194551 70 215 5.0 11.0 0.00 0.00 0.00 44 1015.7
20260505193050 71 229 3.0 12.0 0.00 0.00 0.00 41 1016.0
20260505191556 71 207 4.0 11.0 0.00 0.00 0.00 38 1015.8
20260505190051 72 219 2.0 9.0 0.00 0.00 0.00 38 1016.1
20260505184553 71 234 4.0 10.0 0.00 0.00 0.00 40 1016.3
20260505183052 71 274 2.0 10.0 0.00 0.00 0.00 41 1016.3
20260505181550 71 232 2.0 6.0 0.00 0.00 0.00 42 1016.3
20260505180056 70 217 2.0 5.0 0.00 0.00 0.00 42 1016.5
20260505174551 71 240 6.0 10.0 0.00 0.00 0.00 42 1017.0
20260505173053 70 228 1.0 5.0 0.00 0.00 0.00 45 1017.2
20260505171556 70 340 3.0 10.0 0.00 0.00 0.00 46 1017.5
20260505170055 69 312 1.0 4.0 0.00 0.00 0.00 47 1017.5
20260505164553 68 93 2.0 4.0 0.00 0.00 0.00 48 1017.4
20260505163049 68 242 1.0 9.0 0.00 0.00 0.00 52 1017.3
20260505161551 66 262 0.0 8.0 0.00 0.00 0.00 51 1017.4
20260505153055 66 219 1.0 8.0 0.00 0.00 0.00 48 1017.6
20260505151558 65 190 3.0 8.0 0.00 0.00 0.00 50 1018.1
20260505130109 58 0 0.0 0.0 0.00 0.00 0.00 69 1017.7
20260505124617 57 0 0.0 2.0 0.00 0.00 0.00 69 1017.7
20260505123105 56 0 0.0 2.0 0.00 0.00 0.00 70 1017.6
20260505121555 53 0 0.0 1.0 0.00 0.00 0.00 74 1017.6
20260505120108 50 103 0.0 1.0 0.00 0.00 0.00 76 1017.5
20260505114556 49 0 0.0 2.0 0.00 0.00 0.00 76 1017.1
20260505113100 49 5 1.0 2.0 0.00 0.00 0.00 75 1017.2
20260505111549 49 0 0.0 2.0 0.00 0.00 0.00 74 1017.3
20260505101555 49 0 0.0 0.0 0.00 0.00 0.00 73 1017.0
20260505100050 49 0 0.0 0.0 0.00 0.00 0.00 75 1017.1
20260505094601 49 0 0.0 0.0 0.00 0.00 0.00 75 1017.0
20260505093056 49 0 0.0 0.0 0.00 0.00 0.00 76 1016.9
20260505091551 49 0 0.0 0.0 0.00 0.00 0.00 75 1016.8
20260505090058 49 0 0.0 0.0 0.00 0.00 0.00 74 1016.8
20260505084553 50 0 0.0 0.0 0.00 0.00 0.00 75 1016.8
20260505083103 50 0 0.0 0.0 0.00 0.00 0.00 73 1016.8
20260505081553 50 0 0.0 0.0 0.00 0.00 0.00 73 1016.7
20260505080050 50 0 0.0 0.0 0.00 0.00 0.00 72 1016.6
20260505074549 51 0 0.0 0.0 0.00 0.00 0.00 71 1016.4
20260505073054 51 0 0.0 0.0 0.00 0.00 0.00 72 1016.4
20260505071554 50 0 0.0 0.0 0.00 0.00 0.00 72 1016.5